Location: Aula-Vintri
(58.3875°N, 22.4322°E)
Time: 08:21:40
(UTC+00:00)

USA 116 - Pass Details

Date: 13 October 2019
Orbit: 405 x 834 km, 97.9° (Epoch: 18 November)

Event Time Altitude Azimuth Distance (km) Brightness Sun altitude
Rises 16:21:25 0° 25° (NNE) 2,373 6.7 -7.3°
Reaches altitude 10° 16:23:45 10° 41° (NE) 1,486 5.5 -7.6°
Maximum altitude 16:26:15 22° 95° (E) 963 4.4 -7.9°
Drops below altitude 10° 16:28:44 10° 148° (SSE) 1,479 5.6 -8.3°
Sets 16:31:02 0° 165° (SSE) 2,359 6.8 -8.6°
